Regional Weather Roundup
Issued by NWS

Home | Current Version | Previous Version | Graphics & Text | Print | Product List | Glossary On
Versions: 1 2 3 4 5 6 7 8 9 10 11 12 13 14 15 16 17 18 19 20 21 22 23 24 25 26 27 28 29 30 31 32 33 34 35 36 37 38 39 40 41 42 43 44 45 46 47 48 49 50
000
ASUS43 KBIS 260010
RWRND
NORTH DAKOTA REGIONAL WEATHER ROUNDUP
NATIONAL WEATHER SERVICE EASTERN NORTH DAKOTA/GRAND FORKS ND
700 PM CDT SUN JUN 25 2017

  NOTE: "FAIR" INDICATES FEW OR NO CLOUDS BELOW 12,000 FEET WITH NO
  SIGNIFICANT WEATHER AND/OR OBSTRUCTIONS TO VISIBILITY.

NDZ001>003-009>011-017-260100-
...NORTHWEST NORTH DAKOTA...

CITY           SKY/WX    TMP DP  RH WIND       PRES   REMARKS
WILLISTON      FAIR      74  41  30 NE12      30.22F
6HR MIN TEMP:  67; 6HR MAX TEMP:  76;

MINOT          FAIR      67  41  38 N12G22    30.22S
MINOT AFB      FAIR      67  40  38 N10       30.21S
6HR MIN TEMP:  64; 6HR MAX TEMP:  68;

$$

NDZ018>021-031>035-040>046-260100-
...SOUTHWEST NORTH DAKOTA...

CITY           SKY/WX    TMP DP  RH WIND       PRES   REMARKS
BISMARCK       FAIR      72  43  35 NW15G23   30.20F
DICKINSON      FAIR      71  33  24 N13G21    30.20F
GARRISON         N/A     66  41  40 VRB7      30.21S
HETTINGER      FAIR      72  37  28 N13       30.22S
$$

NDZ004>008-012>016-024-026-027-054-260100-
...NORTHEAST NORTH DAKOTA...

CITY           SKY/WX    TMP DP  RH WIND       PRES   REMARKS
GRAND FORKS    FAIR      66  42  41 N17       30.17S
GRAND FORKS AF FAIR      63  41  44 N12       30.19R
DEVILS LAKE    FAIR      64  37  36 N13       30.21S
$$

NDZ022-023-025-028>030-036>039-047>053-260100-
...SOUTHEAST NORTH DAKOTA...

CITY           SKY/WX    TMP DP  RH WIND       PRES   REMARKS
JAMESTOWN      FAIR      65  41  41 N13       30.19F
FARGO          FAIR      69  40  34 N14       30.15F
WAHPETON       FAIR      64  39  39 NW9       30.16F
$$




USA.gov is the U.S. government's official web portal to all federal, state and local government web resources and services.